Other Public Products
Issued by NWS Grand Forks, ND

Home | Current Version | Previous Version | Graphics & Text | Print | Product List | Glossary On
Versions: 1 2 3 4 5 6 7 8 9 10 11 12 13 14 15 16 17 18 19 20 21 22 23 24 25 26 27 28 29 30 31 32 33 34 35 36 37 38 39 40 41 42 43 44 45 46 47 48 49 50
000
FPUS83 KFGF 291931
OPUFGF
PRAIRIE TO PINES WEATHER ROUNDUP
NATIONAL WEATHER SERVICE EASTERN NORTH DAKOTA/GRAND FORKS ND
200 PM CDT WED OCT 29 2014

 **SATELLITE DATA USED TO AUGMENT SKY COVER AT AUTOMATED STATIONS**
 *****  WEATHER ACROSS EASTERN NORTH DAKOTA  *****

CITY           SKY/WX    TMP DP  RH WIND       PRES   REMARKS
GRAND FORKS    PTSUNNY   40  28  62 VRB7      30.08F
GRAND FORKS AF CLOUDY    40  28  62 S7        30.07F
GRAND CITY NWS   N/A     39 N/A N/A SW6         N/A
BUXTON           N/A     41  30  65 SW10        N/A
DEVILS LAKE    PTSUNNY   43  27  52 S12G17    29.98F
FARGO          CLOUDY    40  28  62 SW6       30.10F
WAHPETON ARPT  PTCLDY    41  27  56 SW6       30.11F
$$

 *****  WEATHER ACROSS CENTRAL AND WESTERN NORTH DAKOTA  *****

CITY           SKY/WX    TMP DP  RH WIND       PRES   REMARKS
JAMESTOWN      PTSUNNY   45  30  55 S10       30.01F
BISMARCK       CLOUDY    50  30  46 S13       29.96F
MINOT          CLOUDY    43  29  57 S17       29.90F
MINOT AFB      PTSUNNY   45  31  59 S17       29.88F
GARRISON         N/A     43  32  65 SW12      29.91F
WILLISTON      CLOUDY    38  30  73 S8        29.89F
DICKINSON      LGT RAIN  45  37  73 W7        29.90F
HETTINGER      CLOUDY    50  30  46 SW6       29.96F
$$

 *****  OTHER OBSERVATIONS NORTHEAST NORTH DAKOTA  *****

CITY           SKY/WX    TMP DP  RH WIND       PRES   REMARKS
WALHALLA         N/A     39  28  65 S12       30.04F
LANGDON        CLOUDY    39  28  65 S9        29.99F
CAVALIER       MOCLDY    39  27  60 SW7       30.05F
GRAFTON        MOCLDY    39  27  60 W3        30.06F
CANDO          CLOUDY    41  30  65 S12       29.98F
FORT TOTTEN      N/A     42  29  60 S7        29.95
ROLLA          MOCLDY    39  30  70 S14       29.95F
RUGBY          FAIR      45  32  61 S13G20    29.93F
 ***** THE ABOVE OBSERVATIONS ARE NON NWS ARE NOT QUALITY
        CONTROLLED AND MAY MIS-REPORT RAIN FOR SNOW...
$$

 *****  OTHER OBSERVATIONS SOUTHEAST NORTH DAKOTA *****

CITY           SKY/WX    TMP DP  RH WIND       PRES   REMARKS
COOPERSTOWN    NOT AVBL
VALLEY CITY    FAIR      41  32  70 S9        30.03F
OAKES            N/A     45  32  61 S12       30.04F
GWINNER        CLEAR     45  32  61 S8        30.06F
BUFFALO        NOT AVBL
WYNDMERE         N/A     43  30  61 S7          N/A
 ***** THE ABOVE OBSERVATIONS ARE NON NWS ARE NOT QUALITY
       CONTROLLED AND MAY MIS-REPORT RAIN FOR SNOW...
$$

  *****  WEATHER ACROSS NORTHERN MINNESOTA  *****

CITY           SKY/WX    TMP DP  RH WIND       PRES   REMARKS
FLAG ISLAND    CLOUDY    36  34  93 SW5       30.04S
WARROAD        CLOUDY    37  34  87 SW8       30.06F
ROSEAU         CLOUDY    37  32  81 SW7       30.06F
HALLOCK          N/A     37  30  75 S6        30.06F
THF RVR FALLS  CLOUDY    36  30  80 SW8       30.08F
HALSTAD          N/A     40  27  59 SW8         N/A
FOSSTON        CLOUDY    36  30  80 SW8       30.09F
BAUDETTE       CLOUDY    37  34  89 VRB5      30.06F
WASKISH        CLOUDY    37  34  87 CALM      30.07S
CROOKSTON      CLOUDY    39  28  65 SW6       30.09F
$$
  *****  WEATHER ACROSS CENTRAL AND WEST MINNESOTA  *****

CITY           SKY/WX    TMP DP  RH WIND       PRES   REMARKS
BEMIDJI        CLOUDY    35  31  85 W7        30.08S
PARK RAPIDS    CLOUDY    36  30  79 SW7       30.09F
WADENA         CLOUDY    36  28  75 S3        30.08F
DETROIT LAKES  CLOUDY    36  32  87 W5        30.10S
MOORHEAD       CLOUDY    41  30  65 S6        30.10F
FERGUS FALLS   PTSUNNY   37  27  65 W6        30.12S
ELBOW LAKE     CLOUDY    37  29  73 S3        30.10F
MORRIS MN      PTSUNNY   39  30  70 SE5       30.10F
STAPLES        CLOUDY    36  30  80 W5        30.10F
WHEATON        SUNNY     39  28  65 S3        30.12F
$$
  *****  WEATHER ELSEWHERE ACROSS MINNESOTA  *****

CITY           SKY/WX    TMP DP  RH WIND       PRES   REMARKS
DULUTH         CLOUDY    41  33  73 NW8       30.06F
INTRNTL FALLS  CLOUDY    39  36  89 SW6       30.04F
ELY            CLOUDY    39  34  81 W7        30.04S
CLOQUET        CLOUDY    41  32  70 W7        30.07F
BRAINERD       CLOUDY    36  31  82 W8        30.11F
HIBBING        CLOUDY    41  33  73 W6        30.06F
ALEXANDRIA     CLOUDY    36  29  75 VRB5      30.12F
SAINT CLOUD    CLOUDY    41  31  67 NW6       30.13F
MINNEAPOLIS    CLOUDY    41  31  67 NW7       30.14F
$$

  *****  WEATHER ACROSS SOUTH DAKOTA  *****

CITY           SKY/WX    TMP DP  RH WIND       PRES   REMARKS
SIOUX FALLS    MOSUNNY   48  32  53 VRB3      30.12F
BROOKINGS      NOT AVBL
WATERTOWN      SUNNY     42  31  64 SW3       30.09F
HURON          SUNNY     49  29  46 S10       30.08F
SISSETON         N/A     44  30  57 W8        30.09F
ABERDEEN       SUNNY     47  29  49 S10       30.06F
MITCHELL       SUNNY     50  32  50 S9        30.10F
PIERRE         SUNNY     57  27  31 S16       29.98F
MOBRIDGE       SUNNY     54  31  41 S18       29.96F
RAPID CITY     PTSUNNY   63  25  23 SE3       29.96F
$$

  *****  SOME WEATHER IN NEARBY STATES *****

CITY           SKY/WX    TMP DP  RH WIND       PRES   REMARKS
GLASGOW MT     PTSUNNY   50  38  63 W6        29.88F
GREAT FALLS MT MOSUNNY   60  30  32 SW24G32   30.01R
CHEYENNE WY    SUNNY     62  20  19 W28G37    30.13F
SCOTTSBLUFF NE SUNNY     66  27  23 W6        30.03F
OMAHA NE       SUNNY     52  31  44 VRB5      30.19F
DES MOINES IA  MOSUNNY   52  34  50 NW8       30.18F
DAVENPORT IA   MOSUNNY   50  30  46 N12       30.14S
CHICAGO IL     CLOUDY    46  32  58 W12       30.08R
EAU CLAIRE WI  CLOUDY    43  31  62 VRB3      30.10F
LA CROSSE WI   PTSUNNY   47  32  56 NW9       30.12F
$$

  *****  SOME NATIONAL WEATHER *****

CITY           SKY/WX    TMP DP  RH WIND       PRES   REMARKS
LA GUARDIA NY  CLOUDY    68  47  46 NW20      29.83R
RALEIGH NC     MOSUNNY   77  57  50 SW14      29.93F
ATLANTA GA     PTSUNNY   72  63  73 W8        30.02F
NEW ORLEANS LA MOSUNNY   83  64  52 NW12      30.04F
OKLAHOMA CITY  SUNNY     72  33  24 S8        30.20F
ALBUQUERQUE NM SUNNY     67  18  15 NE5       30.28F
SALT LAKE CITY MOSUNNY   60  17  18 SW3       30.29F
LOS ANGELES CA SUNNY     74  60  62 SW5       30.03S
BOISE ID       CLOUDY    60  36  40 CALM      30.23R
SEATTLE WA     MOSUNNY   60  53  77 S10       30.14R
$$

*** WEATHER ACROSS MANITOBA...SASKATCHEWAN AND ONTARIO ***
                ***ONTARIO***

CITY           SKY/WX    TMP DP  RH WIND       PRES   REMARKS
GERALDTON      PTSUNNY   30  28  93 NW9       29.95  WCI  22
THUNDER BAY    PTSUNNY   43  30  61 W3        30.02S
SIOUX LOOKOUT  FLURRIES  36  30  80 NW7       30.02S
TORONTO        CLOUDY    50  39  66 W14G20    29.87S
BIG TROUT LK   PTSUNNY   28  23  80 NW10G17   29.99S WCI  19
PICKLE LAKE    FLURRIES  30  23  74 NW7       29.98S WCI  23
DRYDEN         CLOUDY    36  32  87 SW6       30.02S
KENORA         DRIZZLE   36  32  87 W5        30.03S
$$
                *** MANITOBA***

CITY           SKY/WX    TMP DP  RH WIND       PRES   REMARKS
BRANDON        CLOUDY    37  28  70 SE9       29.98F
DAUPHIN        CLOUDY    36  30  80 SE10      29.97F
ISLAND LAKE    CLOUDY   N/A N/A N/A W6          N/A
PILOT MOUND      N/A     37  28  70 S10         N/A
THE PAS        CLOUDY    32  27  80 SE5       30.03R
THOMPSON       FLURRIES  27  21  80 W7        30.04F WCI  19
WINNIPEG       CLOUDY    36  30  80 SW6       30.06F
LYNN LAKE      PTSUNNY   30  21  69 N13G18    30.03S WCI  20
CHURCHILL      FLURRIES  23  23 100 W9        30.06S WCI  13
GILLAM         PTSUNNY   25  19  80 W6        30.04  WCI  18
$$
                ***SASKATCHEWAN***

CITY           SKY/WX    TMP DP  RH WIND       PRES   REMARKS
ESTEVAN        PTSUNNY   45  32  61 SW9       29.84F
KINDERSLEY     CLOUDY    30  28  93 N10       29.92S FOG     WCI  21
LLOYDMINSTER   CLOUDY    34  28  80 NE8       29.96R
PRINCE ALBERT  CLOUDY    34  30  86 E13       29.98R WCI  25
REGINA         MOSUNNY   45  34  65 VRB2      29.83R
YORKTON        CLOUDY    34  30  86 E6        29.90S



USA.gov is the U.S. government's official web portal to all federal, state and local government web resources and services.